IRNSS-1J (NVS-01)

Last updated on Thu Nov 21 2024 00:02:45 GMT+0000 (Coordinated Universal Time)

1 56759U 23076A 24325.57381377 -.00000335 00000+0 00000+0 0 9997 2 56759 3.5977 262.6195 0007943 356.3948 137.2335 1.00273850 5361
UTC large
Height (km)
Speed (km/s)
/
Latitude / Longitude
Inclination (degrees)
Orbital Period (minutes)
Azimuth
Elevation
Range (km)
Doppler Factor

Next 0 passes for location: London (51.5072 / 0.1276)

Sorry there are no passes over London.